Location: Alincthun
(50.7310°N, 1.8022°E)
Time: 19:19:35
(UTC+00:00)

Cosmos 1743 Rocket - Pass Details

Date: 17 February 2020
Orbit: 605 x 632 km, 82.6° (Epoch: 06 April)

Event Time Altitude Azimuth Distance (km) Brightness Sun altitude
Rises 05:05:38 0° 347° (NNW) 2,878 6.9 -19.1°
Reaches altitude 10° 05:07:52 10° 345° (NNW) 1,968 6.0 -18.7°
Maximum altitude 05:12:11 68° 264° (W) 658 3.4 -18.0°
Drops below altitude 10° 05:16:28 10° 181° (S) 1,952 6.1 -17.3°
Sets 05:18:40 0° 179° (S) 2,852 7.0 -17.0°
